Simultaneous Nadir Overpasses (SNOs) Predictions

Prediction of SNOs between NOAA-19 and NPP Satellite Orbit:

Table of predicted SNOs for the next 14.0 days since TLE Epoch: 2/13/2021
Index Date (NOAA-19) Time (NOAA-19) Lat,Lon (NOAA-19) SZA (NOAA-19 ) Date (NPP) Time (NPP) Lat,Lon (NPP) SZA (NPP ) Distance(km) Time Diff (sec)
1 02/13/2021 11:57:20 -78.62, 152.12 86.57 02/13/2021 11:58:31 -78.63, 152.13 86.60 0.80 71
2 02/13/2021 12:48:22 78.62, -40.67 93.42 02/13/2021 12:49:17 78.65, -40.71 93.43 3.99 55
3 02/13/2021 13:39:20 -78.64, 126.73 86.59 02/13/2021 13:40:01 -78.63, 126.73 86.61 0.50 41
4 02/13/2021 14:30:22 78.63, -66.07 93.40 02/13/2021 14:30:47 78.66, -66.11 93.42 2.86 25
5 02/13/2021 15:21:20 -78.65, 101.33 86.61 02/13/2021 15:21:31 -78.64, 101.33 86.63 1.73 11
6 02/13/2021 16:12:22 78.65, -91.46 93.38 02/13/2021 16:12:17 78.66, -91.51 93.40 1.81 5
7 02/13/2021 17:03:20 -78.67, 75.94 86.63 02/13/2021 17:03:01 -78.64, 75.93 86.65 2.97 19
8 02/13/2021 17:54:22 78.66,-116.86 93.36 02/13/2021 17:53:47 78.66,-116.90 93.38 1.09 35
9 02/13/2021 18:45:21 -78.65, 50.31 86.66 02/13/2021 18:44:32 -78.68, 50.30 86.61 3.79 49
10 02/13/2021 19:36:22 78.68,-142.25 93.34 02/13/2021 19:35:17 78.67,-142.30 93.36 1.38 65
11 02/13/2021 20:27:16 -78.83, 26.15 86.66 02/13/2021 20:26:06 -78.83, 23.95 86.41 47.29 70



Historial Predications of SNOs between NOAA-19 and NPP
